KN4URY Weather Reports


time (UTC)temp
F
wind
direction
speed
knots
gust
knots
rain 1hr
in
rain 24hr
in
rain mn
in
humidity
%
barometer
mb
20260504231815 76 341 0.0 1.7 0.00 0.00 0.00 44 1011.7
20260504231314 76 341 0.0 1.7 0.00 0.00 0.00 44 1011.8
20260504230836 76 341 0.0 0.9 0.00 0.00 0.00 44 1011.8
20260504230336 76 341 0.0 4.3 0.00 0.00 0.00 43 1011.8
20260504225835 76 341 0.9 5.2 0.00 0.00 0.00 43 1011.8
20260504225313 76 341 0.9 5.2 0.00 0.00 0.00 44 1011.9
20260504224811 76 341 0.9 5.2 0.00 0.00 0.00 43 1011.9
20260504224312 77 341 0.9 5.2 0.00 0.00 0.00 43 1011.9
20260504223836 77 341 0.9 5.2 0.00 0.00 0.00 42 1012.0
20260504223316 77 341 1.7 4.3 0.00 0.00 0.00 42 1012.0
20260504222814 77 341 0.9 6.1 0.00 0.00 0.00 42 1011.9
20260504222340 77 341 0.9 4.3 0.00 0.00 0.00 42 1011.9
20260504221813 77 341 0.9 4.3 0.00 0.00 0.00 44 1012.0
20260504221312 76 341 2.6 6.1 0.00 0.00 0.00 44 1011.9
20260504220839 75 341 2.6 6.1 0.00 0.00 0.00 44 1012.0
20260504220337 75 341 1.7 4.3 0.00 0.00 0.00 45 1012.1
20260504215837 75 341 0.9 4.3 0.00 0.00 0.00 43 1012.0
20260504215335 75 341 1.7 7.0 0.00 0.00 0.00 43 1012.1
20260504214812 75 341 2.6 6.1 0.00 0.00 0.00 42 1011.9
20260504214312 75 341 1.7 7.0 0.00 0.00 0.00 43 1011.9
20260504213812 75 341 3.5 6.1 0.00 0.00 0.00 43 1012.0
20260504213311 75 341 2.6 6.1 0.00 0.00 0.00 41 1011.9
20260504212853 75 341 2.6 8.7 0.00 0.00 0.00 41 1012.0
20260504212332 76 341 2.6 8.7 0.00 0.00 0.00 41 1011.8
20260504211831 76 341 3.5 8.7 0.00 0.00 0.00 42 1011.8
20260504211332 76 341 2.6 7.0 0.00 0.00 0.00 42 1011.8
20260504210858 75 341 3.5 8.7 0.00 0.00 0.00 41 1011.9
20260504210337 75 341 2.6 9.6 0.00 0.00 0.00 42 1011.8
20260504205815 75 341 3.5 7.8 0.00 0.00 0.00 42 1011.8
20260504205315 75 341 2.6 7.0 0.00 0.00 0.00 41 1011.7
20260504204813 75 341 3.5 9.6 0.00 0.00 0.00 41 1011.8
20260504204313 75 341 3.5 9.6 0.00 0.00 0.00 40 1011.8
20260504203813 76 341 1.7 7.8 0.00 0.00 0.00 40 1011.8
20260504203314 76 341 3.5 10.4 0.00 0.00 0.00 40 1011.9
20260504202837 76 341 2.6 10.4 0.00 0.00 0.00 39 1011.8
20260504202339 75 341 4.3 7.0 0.00 0.00 0.00 41 1011.8
20260504201838 74 341 2.6 6.1 0.00 0.00 0.00 38 1011.8
20260504201335 74 341 1.7 7.0 0.00 0.00 0.00 39 1012.0
20260504200813 74 341 2.6 8.7 0.00 0.00 0.00 39 1012.1
20260504200340 74 341 3.5 8.7 0.00 0.00 0.00 39 1012.2
20260504195818 74 341 2.6 7.0 0.00 0.00 0.00 38 1012.2
20260504195317 75 341 3.5 7.0 0.00 0.00 0.00 37 1012.2
20260504194816 75 341 1.7 9.6 0.00 0.00 0.00 39 1012.3
20260504194314 75 341 3.5 10.4 0.00 0.00 0.00 36 1012.4
20260504193814 76 341 4.3 10.4 0.00 0.00 0.00 36 1012.5
20260504193335 77 341 3.5 7.8 0.00 0.00 0.00 35 1012.4
20260504192834 77 341 2.6 7.8 0.00 0.00 0.00 34 1012.4
20260504192318 77 341 2.6 7.8 0.00 0.00 0.00 37 1012.5
20260504191818 77 341 3.5 7.0 0.00 0.00 0.00 36 1012.5
20260504191316 77 341 2.6 9.6 0.00 0.00 0.00 37 1012.6
20260504190816 77 341 4.3 9.6 0.00 0.00 0.00 34 1012.7
20260504190319 77 341 3.5 9.6 0.00 0.00 0.00 35 1012.9
20260504185817 77 341 4.3 9.6 0.00 0.00 0.00 35 1013.0
20260504185321 77 341 2.6 7.0 0.00 0.00 0.00 37 1012.9
20260504184841 76 341 2.6 9.6 0.00 0.00 0.00 36 1013.1
20260504184319 76 341 5.2 10.4 0.00 0.00 0.00 35 1013.0
20260504183845 76 341 5.2 10.4 0.00 0.00 0.00 36 1013.0
20260504183321 76 341 3.5 8.7 0.00 0.00 0.00 36 1013.2
20260504182820 76 341 1.7 8.7 0.00 0.00 0.00 36 1013.2
20260504182320 76 341 3.5 10.4 0.00 0.00 0.00 37 1013.2
20260504181819 76 341 3.5 10.4 0.00 0.00 0.00 36 1013.1
20260504181319 76 341 2.6 6.1 0.00 0.00 0.00 36 1013.2
20260504180817 76 341 1.7 8.7 0.00 0.00 0.00 36 1013.2
20260504180316 75 341 2.6 8.7 0.00 0.00 0.00 36 1013.3
20260504175816 74 341 4.3 7.8 0.00 0.00 0.00 37 1013.5
20260504175337 74 341 3.5 8.7 0.00 0.00 0.00 37 1013.6
20260504174835 74 341 3.5 9.6 0.00 0.00 0.00 38 1013.5
20260504174334 74 341 3.5 9.6 0.00 0.00 0.00 37 1013.5
20260504173831 75 341 1.7 6.1 0.00 0.00 0.00 38 1013.5
20260504173311 74 341 1.7 7.8 0.00 0.00 0.00 39 1013.7
20260504172837 74 341 4.3 8.7 0.00 0.00 0.00 37 1013.8
20260504172336 73 341 1.7 8.7 0.00 0.00 0.00 39 1013.8
20260504171816 74 341 1.7 6.1 0.00 0.00 0.00 40 1013.9
20260504171315 73 341 0.9 7.8 0.00 0.00 0.00 40 1014.0
20260504170821 73 341 3.5 7.8 0.00 0.00 0.00 38 1014.2
20260504170321 72 341 2.6 7.8 0.00 0.00 0.00 40 1014.3
20260504160316 69 341 1.7 5.2 0.00 0.00 0.00 45 1015.2
20260504150812 66 341 2.6 7.0 0.00 0.00 0.00 46 1015.4
20260504150312 66 341 1.7 7.8 0.00 0.00 0.00 45 1015.4
20260504141312 63 341 2.6 6.1 0.00 0.00 0.00 53 1015.6
20260504140832 63 341 0.9 5.2 0.00 0.00 0.00 54 1015.5
20260504140331 62 341 0.9 5.2 0.00 0.00 0.00 53 1015.5
20260504130813 56 341 0.9 4.3 0.00 0.00 0.00 63 1015.9
20260504130313 55 341 1.7 3.5 0.00 0.00 0.00 66 1015.9
20260504110330 49 341 0.9 5.2 0.00 0.00 0.00 66 1015.7
20260504100325 48 341 0.0 1.7 0.00 0.00 0.00 67 1015.5
20260504081819 48 341 0.9 1.7 0.00 0.00 0.00 70 1016.3
20260504081325 48 341 0.0 1.7 0.00 0.00 0.00 69 1016.3
20260504080823 48 341 0.0 1.7 0.00 0.00 0.00 69 1016.1
20260504080322 48 341 0.0 2.6 0.00 0.00 0.00 69 1016.2
20260504070345 49 341 0.9 2.6 0.00 0.00 0.00 65 1016.0
20260504050337 47 341 0.0 0.9 0.00 0.00 0.00 65 1016.1
20260504045815 47 341 0.0 0.9 0.00 0.00 0.00 65 1016.0
20260504045313 47 341 0.0 0.9 0.00 0.00 0.00 64 1015.9
20260504044813 47 341 0.0 0.9 0.00 0.00 0.00 64 1015.8
20260504044311 47 341 0.0 0.9 0.00 0.00 0.00 64 1015.8
20260504043812 48 341 0.0 1.7 0.00 0.00 0.00 64 1015.9
20260504043339 48 341 0.0 1.7 0.00 0.00 0.00 63 1015.9
20260504042838 47 341 0.0 0.9 0.00 0.00 0.00 64 1016.0
20260504042338 47 341 0.0 0.9 0.00 0.00 0.00 64 1016.0
20260504041837 47 341 0.0 0.9 0.00 0.00 0.00 64 1016.0
20260504041335 47 341 0.0 0.0 0.00 0.00 0.00 64 1016.0
20260504040833 47 341 0.0 0.9 0.00 0.00 0.00 64 1016.0
20260504040335 47 341 0.0 0.9 0.00 0.00 0.00 64 1016.1
20260504035829 47 341 0.0 0.9 0.00 0.00 0.00 63 1016.0
20260504035330 48 341 0.0 0.9 0.00 0.00 0.00 65 1016.1
20260504034830 48 341 0.0 0.9 0.00 0.00 0.00 63 1016.0
20260504034330 48 341 0.0 0.9 0.00 0.00 0.00 63 1015.9
20260504033832 48 341 0.0 0.9 0.00 0.00 0.00 63 1016.0
20260504033333 48 341 0.0 0.9 0.00 0.00 0.00 64 1016.0
20260504032832 48 341 0.0 0.9 0.00 0.00 0.00 64 1016.0
20260504032312 47 341 0.0 0.9 0.00 0.00 0.00 63 1015.9
20260504031838 47 341 0.0 0.9 0.00 0.00 0.00 64 1016.0
20260504031341 48 341 0.0 0.0 0.00 0.00 0.00 64 1016.1
20260504030820 48 341 0.0 0.9 0.00 0.00 0.00 64 1016.1
20260504030346 48 341 0.0 0.9 0.00 0.00 0.00 63 1016.0
20260504025824 47 341 0.0 0.9 0.00 0.00 0.00 65 1016.0
20260504025323 47 341 0.0 0.9 0.00 0.00 0.00 67 1016.0
20260504024823 46 341 0.0 0.9 0.00 0.00 0.00 70 1015.9
20260504024352 46 341 0.0 0.0 0.00 0.00 0.00 71 1016.0
20260504023828 46 341 0.0 0.0 0.00 0.00 0.00 74 1015.9
20260504023355 46 341 0.0 0.0 0.00 0.00 0.00 74 1016.0
20260504022833 47 341 0.0 0.0 0.00 0.00 0.00 72 1016.0
20260504022332 47 341 0.0 0.0 0.00 0.00 0.00 71 1016.1
20260504021832 47 341 0.0 0.0 0.00 0.00 0.00 72 1016.2
20260504021332 46 341 0.0 0.0 0.00 0.00 0.00 72 1016.2
20260504020831 46 341 0.0 0.0 0.00 0.00 0.00 73 1016.0
20260504020330 46 341 0.0 0.0 0.00 0.00 0.00 74 1016.0
20260504015827 46 341 0.0 0.0 0.00 0.00 0.00 75 1015.9
20260504015325 46 341 0.0 0.0 0.00 0.00 0.00 77 1015.9
20260504014826 46 341 0.0 0.0 0.00 0.00 0.00 78 1015.8
20260504014324 46 341 0.0 0.0 0.00 0.00 0.00 76 1015.8
20260504013851 46 341 0.0 0.0 0.00 0.00 0.00 77 1015.8
20260504013352 46 341 0.0 0.0 0.00 0.00 0.00 75 1015.7
20260504012830 46 341 0.0 0.0 0.00 0.00 0.00 73 1015.6
20260504012330 46 341 0.0 0.0 0.00 0.00 0.00 74 1015.6
20260504011829 47 341 0.0 0.0 0.00 0.00 0.00 74 1015.5
20260504011330 47 341 0.0 0.0 0.00 0.00 0.00 72 1015.5
20260504010830 48 341 0.0 0.0 0.00 0.00 0.00 70 1015.5
20260504010330 49 341 0.0 0.0 0.00 0.00 0.00 67 1015.4
20260504005829 49 341 0.0 0.0 0.00 0.00 0.00 66 1015.3
20260504005329 49 341 0.0 0.0 0.00 0.00 0.00 64 1015.4
20260504004855 50 341 0.0 0.0 0.00 0.00 0.00 63 1015.4
20260504004333 51 341 0.0 0.0 0.00 0.00 0.00 62 1015.4
20260504003834 51 341 0.0 0.0 0.00 0.00 0.00 60 1015.4
20260504003333 52 341 0.0 0.0 0.00 0.00 0.00 59 1015.4
20260504002833 53 341 0.0 0.0 0.00 0.00 0.00 58 1015.3
20260504002332 54 341 0.0 0.0 0.00 0.00 0.00 58 1015.3
20260504001813 55 341 0.0 0.0 0.00 0.00 0.00 55 1015.3
20260504001316 56 341 0.0 1.7 0.00 0.00 0.00 53 1015.4
20260504000816 57 341 0.0 1.7 0.00 0.00 0.00 53 1015.2
20260504000316 58 341 0.0 0.0 0.00 0.00 0.00 51 1015.2
20260503235816 60 341 0.0 0.0 0.00 0.00 0.00 48 1015.1
20260503235316 61 341 0.0 0.0 0.00 0.00 0.00 46 1015.1
20260503234816 62 341 0.0 0.9 0.00 0.00 0.00 44 1015.1
20260503234315 64 341 0.0 0.9 0.00 0.00 0.00 39 1015.1
20260503233814 65 341 0.0 0.9 0.00 0.00 0.00 38 1015.0
20260503233356 66 341 0.0 0.9 0.00 0.00 0.00 38 1015.0
20260503232835 65 341 0.0 3.5 0.00 0.00 0.00 37 1014.9
20260503232312 65 341 0.0 3.5 0.00 0.00 0.00 34 1014.9